Colby, KS

7:54 PM CST on December 04, 2016 (GMT -0600)
Shaltz

Weather History for KCBK - January, 2014

Change the Weather History Date:

Thursday, January 2, 2014

  Actual Average (KGLD) Record (KGLD)
Temperature  
Mean Temperature 29 °F 30 °F  
Max Temperature 44 °F 42 °F 71 °F (1997)
Min Temperature 14 °F 17 °F -13 °F (1919)
Degree Days  
Heating Degree Days 36 36  
Month to date heating degree days 72  
Since 1 July heating degree days 2479  
Cooling Degree Days 0 0  
Month to date cooling degree days 0  
Year to date cooling degree days 0  
Moisture  
Dew Point 22 °F    
Average Humidity 79    
Maximum Humidity 100    
Minimum Humidity 43    
Precipitation  
Precipitation 0.00 in 0.01 in 0.27 in (1971)
Month to date precipitation 0.02  
Year to date precipitation 0.02  
Snow  
Snow 0.00 in 0.20 in - ()
Month to date snowfall 0.4  
Since 1 July snowfall 13.1  
Snow Depth -    
Sea Level Pressure  
Sea Level Pressure 30.24 in    
Wind  
Wind Speed 8 mph (WSW)    
Max Wind Speed 18 mph    
Max Gust Speed 22 mph    
Visibility 10 miles    
Events      
T = Trace of Precipitation, MM = Missing Value Source: NWS Daily Summary

Daily Weather History Graph

Daily Weather History Graph

Search for Another Location

Airport or City:

Trip Planner

Search our weather history database for the weather conditions in past years. The results will help you decide how hot, cold, wet, or windy it might be!

Date:

Astronomy

Jan. 02, 2014 Rise Set
Actual Time 8:04 AM CST 5:32 PM CST
Civil Twilight 7:34 AM CST 6:02 PM CST
Nautical Twilight 7:00 AM CST 6:36 PM CST
Astronomical Twilight 6:28 AM CST 7:08 PM CST
Moon 8:48 AM CST (1/2) 7:30 PM CST (1/2)
Length of Visible Light 10h 27m
Length of Day
9h 27m
Waxing Crescent, 3% of the Moon is Illuminated
Jan 2
Waxing Crescent
Jan 7
First Quarter
Jan 15
Full
Jan 23
Last Quarter
Jan 30
New

Hourly Weather History & Observations

Time (CST) Temp. Windchill Dew Point Humidity Pressure Visibility Wind Dir Wind Speed Gust Speed Precip Events Conditions
12:15 AM 17.6 °F 10.7 °F 17.6 °F 100% 30.32 in 10.0 mi West 4.6 mph - N/A   Scattered Clouds
12:35 AM 19.4 °F 14.3 °F 19.4 °F 100% 30.31 in 7.0 mi WSW 3.5 mph - N/A   Clear
12:55 AM 15.8 °F 8.6 °F 15.8 °F 100% 30.31 in 7.0 mi SW 4.6 mph - N/A   Clear
1:15 AM 15.8 °F 7.2 °F 15.8 °F 100% 30.30 in 5.0 mi SW 5.8 mph - N/A   Clear
1:35 AM 14.0 °F 3.9 °F 14.0 °F 100% 30.30 in 7.0 mi SW 6.9 mph - N/A   Clear
1:55 AM 14.0 °F 6.5 °F 14.0 °F 100% 30.30 in 7.0 mi WSW 4.6 mph - N/A   Clear
2:15 AM 14.0 °F 2.9 °F 14.0 °F 100% 30.30 in 7.0 mi WSW 8.1 mph - N/A   Clear
2:35 AM 19.4 °F 11.5 °F 19.4 °F 100% 30.30 in 10.0 mi WSW 5.8 mph - N/A   Mostly Cloudy
2:55 AM 17.6 °F 10.7 °F 17.6 °F 100% 30.30 in 10.0 mi SSW 4.6 mph - N/A   Overcast
3:15 AM 17.6 °F 7.3 °F 17.6 °F 100% 30.29 in 10.0 mi SW 8.1 mph - N/A   Overcast
3:35 AM 17.6 °F 7.3 °F 17.6 °F 100% 30.29 in 10.0 mi WSW 8.1 mph - N/A   Overcast
3:55 AM 19.4 °F 7.9 °F 19.4 °F 100% 30.28 in 10.0 mi WSW 10.4 mph - N/A   Mostly Cloudy
4:15 AM 21.2 °F 12.6 °F 21.2 °F 100% 30.27 in 10.0 mi WSW 6.9 mph - N/A   Mostly Cloudy
4:35 AM 19.4 °F 9.5 °F 19.4 °F 100% 30.27 in 10.0 mi WSW 8.1 mph - N/A   Scattered Clouds
4:55 AM 19.4 °F 8.6 °F 19.4 °F 100% 30.27 in 10.0 mi West 9.2 mph - N/A   Clear
5:15 AM 21.2 °F 10.9 °F 21.2 °F 100% 30.27 in 10.0 mi West 9.2 mph - N/A   Clear
5:35 AM 19.4 °F 8.6 °F 19.4 °F 100% 30.27 in 10.0 mi West 9.2 mph - N/A   Clear
5:55 AM 19.4 °F 7.9 °F 19.4 °F 100% 30.26 in 10.0 mi West 10.4 mph - N/A   Clear
6:15 AM 19.4 °F 7.2 °F 19.4 °F 100% 30.26 in 10.0 mi West 11.5 mph - N/A   Clear
6:35 AM 21.2 °F 9.5 °F 19.4 °F 93% 30.27 in 10.0 mi West 11.5 mph - N/A   Clear
6:55 AM 19.4 °F 6.6 °F 19.4 °F 100% 30.26 in 10.0 mi West 12.7 mph - N/A   Clear
7:15 AM 19.4 °F 6.6 °F 19.4 °F 100% 30.26 in 10.0 mi West 12.7 mph - N/A   Clear
7:35 AM 21.2 °F 9.5 °F 19.4 °F 93% 30.26 in 10.0 mi West 11.5 mph - N/A   Clear
7:55 AM 19.4 °F 7.9 °F 19.4 °F 100% 30.27 in 10.0 mi West 10.4 mph - N/A   Clear
8:15 AM 19.4 °F 7.9 °F 19.4 °F 100% 30.27 in 10.0 mi West 10.4 mph - N/A   Clear
8:35 AM 23.0 °F 10.6 °F 21.2 °F 93% 30.27 in 10.0 mi West 13.8 mph - N/A   Clear
8:55 AM 24.8 °F 12.9 °F 23.0 °F 93% 30.27 in 10.0 mi West 13.8 mph - N/A   Clear
9:15 AM 26.6 °F 16.2 °F 24.8 °F 93% 30.29 in 10.0 mi West 11.5 mph - N/A   Clear
9:35 AM 28.4 °F 18.5 °F 26.6 °F 93% 30.29 in 10.0 mi West 11.5 mph - N/A   Clear
9:55 AM 32.0 °F 23.0 °F 28.4 °F 87% 30.29 in 10.0 mi West 11.5 mph - N/A   Clear
10:15 AM 32.0 °F 22.5 °F 28.4 °F 87% 30.29 in 10.0 mi West 12.7 mph - N/A   Clear
10:35 AM 33.8 °F 25.8 °F 28.4 °F 81% 30.30 in 10.0 mi West 10.4 mph - N/A   Clear
10:55 AM 37.4 °F 29.3 °F 28.4 °F 70% 30.30 in 10.0 mi West 12.7 mph - N/A   Clear
11:15 AM 41.0 °F 33.9 °F 28.4 °F 61% 30.30 in 10.0 mi West 12.7 mph - N/A   Clear
11:35 AM 42.8 °F 34.5 °F 26.6 °F 53% 30.29 in 10.0 mi WNW 18.4 mph 21.9 mph N/A   Clear
11:55 AM 42.8 °F 35.4 °F 26.6 °F 53% 30.29 in 10.0 mi WNW 15.0 mph - N/A   Clear
12:15 PM 42.8 °F 35.4 °F 26.6 °F 53% 30.27 in 10.0 mi WNW 15.0 mph - N/A   Clear
12:35 PM 44.6 °F 39.2 °F 24.8 °F 46% 30.26 in 10.0 mi NW 10.4 mph - N/A   Clear
12:55 PM 44.6 °F 39.7 °F 23.0 °F 43% 30.26 in 10.0 mi NW 9.2 mph - N/A   Clear
1:15 PM 44.6 °F 40.2 °F 23.0 °F 43% 30.25 in 10.0 mi WNW 8.1 mph - N/A   Clear
1:35 PM 44.6 °F 41.4 °F 23.0 °F 43% 30.24 in 10.0 mi NW 5.8 mph - N/A   Clear
1:55 PM - - - N/A% 30.23 in - NNW 4.6 mph - N/A   Unknown
2:15 PM 44.6 °F 41.4 °F 23.0 °F 43% 30.23 in 10.0 mi NW 5.8 mph - N/A   Clear
2:35 PM 44.6 °F 41.4 °F 23.0 °F 43% 30.22 in 10.0 mi WNW 5.8 mph - N/A   Clear
2:55 PM 44.6 °F 41.4 °F 23.0 °F 43% 30.22 in 10.0 mi NNW 5.8 mph - N/A   Clear
3:15 PM 44.6 °F 42.2 °F 23.0 °F 43% 30.22 in 10.0 mi NNW 4.6 mph - N/A   Clear
3:35 PM 44.6 °F 43.1 °F 23.0 °F 43% 30.23 in 10.0 mi West 3.5 mph - N/A   Clear
3:55 PM 44.6 °F - 23.0 °F 43% 30.22 in 10.0 mi Calm Calm - N/A   Clear
4:15 PM 44.6 °F - 23.0 °F 43% 30.21 in 10.0 mi Calm Calm - N/A   Clear
4:35 PM 44.6 °F 43.1 °F 23.0 °F 43% 30.21 in 10.0 mi West 3.5 mph - N/A   Clear
4:55 PM 44.6 °F - 23.0 °F 43% 30.21 in 10.0 mi Calm Calm - N/A   Clear
5:15 PM 41.0 °F - 21.2 °F 45% 30.20 in 10.0 mi Calm Calm - N/A   Clear
5:35 PM 39.2 °F 35.0 °F 21.2 °F 49% 30.20 in 10.0 mi ESE 5.8 mph - N/A   Clear
5:55 PM 33.8 °F 28.6 °F 19.4 °F 56% 30.20 in 10.0 mi SE 5.8 mph - N/A   Clear
6:15 PM 33.8 °F 29.6 °F 19.4 °F 56% 30.19 in 10.0 mi SE 4.6 mph - N/A   Clear
6:35 PM 32.0 °F 25.6 °F 19.4 °F 60% 30.20 in 10.0 mi SE 6.9 mph - N/A   Clear
6:55 PM 32.0 °F 25.6 °F 19.4 °F 60% 30.19 in 10.0 mi SE 6.9 mph - N/A   Clear
7:15 PM 30.2 °F 22.6 °F 23.0 °F 75% 30.19 in 10.0 mi SSE 8.1 mph - N/A   Clear
7:35 PM 30.2 °F 21.3 °F 26.6 °F 86% 30.19 in 10.0 mi SSE 10.4 mph - N/A   Clear
7:55 PM 32.0 °F 23.6 °F 26.6 °F 80% 30.19 in 10.0 mi SSE 10.4 mph - N/A   Clear
8:15 PM 32.0 °F 23.0 °F 26.6 °F 80% 30.19 in 10.0 mi SSE 11.5 mph - N/A   Clear
8:35 PM 32.0 °F 22.1 °F 26.6 °F 80% 30.19 in 10.0 mi SSE 13.8 mph - N/A   Clear
8:55 PM 32.0 °F 22.5 °F 26.6 °F 80% 30.18 in 10.0 mi SSE 12.7 mph - N/A   Clear
9:15 PM 32.0 °F 23.0 °F 26.6 °F 80% 30.18 in 10.0 mi SSE 11.5 mph 17.3 mph N/A   Clear
9:35 PM 30.2 °F 19.8 °F 28.4 °F 93% 30.17 in 10.0 mi SSE 13.8 mph - N/A   Clear
9:55 PM 30.2 °F 20.2 °F 28.4 °F 93% 30.17 in 10.0 mi SSE 12.7 mph - N/A   Clear
10:15 PM 30.2 °F 19.3 °F 26.6 °F 86% 30.16 in 10.0 mi SSE 15.0 mph 18.4 mph N/A   Clear
10:35 PM 30.2 °F 18.9 °F 26.6 °F 86% 30.15 in 10.0 mi SSE 16.1 mph - N/A   Clear
10:55 PM 28.4 °F 17.5 °F 26.6 °F 93% 30.14 in 10.0 mi SSE 13.8 mph - N/A   Clear
11:15 PM 28.4 °F 18.5 °F 26.6 °F 93% 30.13 in 10.0 mi SSE 11.5 mph - N/A   Clear
11:35 PM 26.6 °F 16.2 °F 26.6 °F 100% 30.13 in 10.0 mi SSE 11.5 mph - N/A   Clear
11:55 PM 26.6 °F 15.2 °F 26.6 °F 100% 30.12 in 10.0 mi SSE 13.8 mph - N/A   Clear